EW3591 Weather Reports


Display with metric or nautical units.
time (UTC)temp
F
wind
direction
speed
MPH
gust
MPH
rain 1hr
in
rain 24hr
in
rain mn
in
humidity
%
barometer
mb
20201025131228 38 44 2.0 5.0 0.00 0.00 0.00 79 1025.1
20201025131019 38 51 2.0 6.0 0.00 0.00 0.00 79 1025.0
20201025130825 38 32 2.0 6.0 0.00 0.00 0.00 79 1025.1
20201025130417 38 40 2.0 6.0 0.00 0.00 0.00 79 1025.1
20201025130217 38 21 3.0 6.0 0.00 0.00 0.00 79 1025.0
20201025130026 38 17 2.0 6.0 0.00 0.00 0.00 79 1025.0
20201025125817 38 28 2.0 6.0 0.00 0.00 0.00 80 1025.0
20201025125615 38 27 2.0 6.0 0.00 0.00 0.00 80 1025.1
20201025125417 38 30 2.0 6.0 0.00 0.00 0.00 79 1025.0
20201025125219 38 25 2.0 8.0 0.00 0.00 0.00 79 1025.1
20201025125015 38 40 2.0 8.0 0.00 0.00 0.00 79 1025.1
20201025124820 38 24 3.0 8.0 0.00 0.00 0.00 79 1025.0
20201025124613 38 25 3.0 8.0 0.00 0.00 0.00 79 1025.0
20201025124413 38 38 2.0 6.0 0.00 0.00 0.00 79 1025.1
20201025124216 38 46 2.0 8.0 0.00 0.00 0.00 79 1025.1
20201025124033 38 47 2.0 8.0 0.00 0.00 0.00 79 1025.1
20201025123812 38 44 3.0 8.0 0.00 0.00 0.00 79 1025.0
20201025123611 38 34 3.0 8.0 0.00 0.00 0.00 78 1024.9
20201025123411 38 31 3.0 8.0 0.00 0.00 0.00 78 1024.9
20201025123211 38 39 3.0 8.0 0.00 0.00 0.00 78 1024.8
20201025123024 37 43 3.0 8.0 0.00 0.00 0.00 78 1024.7
20201025122812 38 27 2.0 5.0 0.00 0.00 0.00 78 1024.7
20201025122409 37 18 2.0 11.0 0.00 0.00 0.00 77 1024.7
20201025122220 37 44 2.0 11.0 0.00 0.00 0.00 77 1024.7
20201025122024 37 50 3.0 11.0 0.00 0.00 0.00 77 1024.7
20201025121813 37 46 4.0 11.0 0.00 0.00 0.00 76 1024.6
20201025121611 37 54 2.0 7.0 0.00 0.00 0.00 77 1024.7
20201025121408 37 59 2.0 7.0 0.00 0.00 0.00 77 1024.7
20201025121213 37 55 2.0 7.0 0.00 0.00 0.00 77 1024.8
20201025121008 37 25 3.0 7.0 0.00 0.00 0.00 77 1024.8
20201025120808 37 33 2.0 7.0 0.00 0.00 0.00 77 1024.7
20201025120606 37 40 3.0 7.0 0.00 0.00 0.00 77 1024.7
20201025120406 37 35 3.0 7.0 0.00 0.00 0.00 77 1024.7
20201025120209 37 43 3.0 5.0 0.00 0.00 0.00 77 1024.7
20201025120015 37 35 3.0 5.0 0.00 0.00 0.00 77 1024.8
20201025115817 37 55 1.0 5.0 0.00 0.00 0.00 77 1024.8
20201025115206 37 47 2.0 9.0 0.00 0.00 0.00 77 1024.7
20201025115016 37 38 3.0 9.0 0.00 0.00 0.00 77 1024.7
20201025114804 37 28 3.0 9.0 0.00 0.00 0.00 77 1024.7
20201025114603 37 47 3.0 9.0 0.00 0.00 0.00 78 1024.7
20201025114403 37 41 3.0 7.0 0.00 0.00 0.00 78 1024.6
20201025114208 37 14 2.0 6.0 0.00 0.00 0.00 78 1024.6
20201025113802 37 21 2.0 5.0 0.00 0.00 0.00 79 1024.6
20201025113602 37 42 3.0 5.0 0.00 0.00 0.00 78 1024.6
20201025113401 37 42 2.0 5.0 0.00 0.00 0.00 79 1024.6
20201025113200 37 16 2.0 5.0 0.00 0.00 0.00 79 1024.5
20201025112959 37 47 1.0 5.0 0.00 0.00 0.00 79 1024.5
20201025112759 37 24 2.0 5.0 0.00 0.00 0.00 79 1024.5
20201025112601 37 39 2.0 5.0 0.00 0.00 0.00 79 1024.5
20201025112400 37 39 2.0 5.0 0.00 0.00 0.00 79 1024.4
20201025112159 37 46 1.0 6.0 0.00 0.00 0.00 79 1024.5
20201025111958 37 30 2.0 6.0 0.00 0.00 0.00 79 1024.5
20201025111758 37 34 2.0 6.0 0.00 0.00 0.00 79 1024.4
20201025111601 37 45 3.0 6.0 0.00 0.00 0.00 79 1024.5
20201025111404 37 19 2.0 6.0 0.00 0.00 0.00 79 1024.5
20201025111156 37 8 1.0 5.0 0.00 0.00 0.00 79 1024.4
20201025110956 37 31 2.0 5.0 0.00 0.00 0.00 79 1024.3
20201025110758 37 31 1.0 5.0 0.00 0.00 0.00 79 1024.3
20201025110557 37 36 2.0 8.0 0.00 0.00 0.00 79 1024.2
20201025110355 37 59 1.0 8.0 0.00 0.00 0.00 79 1024.2
20201025110155 37 65 2.0 8.0 0.00 0.00 0.00 79 1024.2
20201025110019 37 64 3.0 8.0 0.00 0.00 0.00 78 1024.1
20201025105755 37 41 3.0 8.0 0.00 0.00 0.00 79 1024.1
20201025105556 37 48 2.0 5.0 0.00 0.00 0.00 79 1024.1
20201025105352 37 48 2.0 5.0 0.00 0.00 0.00 79 1024.1
20201025105152 37 42 1.0 6.0 0.00 0.00 0.00 79 1024.1
20201025104955 37 54 2.0 6.0 0.00 0.00 0.00 79 1024.1
20201025104753 37 49 2.0 6.0 0.00 0.00 0.00 79 1024.1
20201025104551 37 56 2.0 6.0 0.00 0.00 0.00 79 1024.0
20201025104354 37 60 1.0 6.0 0.00 0.00 0.00 79 1024.1
20201025104150 37 47 2.0 6.0 0.00 0.00 0.00 79 1024.1
20201025103951 37 44 2.0 6.0 0.00 0.00 0.00 79 1024.1
20201025103752 37 46 3.0 6.0 0.00 0.00 0.00 79 1024.1
20201025103550 37 29 2.0 6.0 0.00 0.00 0.00 79 1024.1
20201025103349 37 38 1.0 5.0 0.00 0.00 0.00 80 1024.2
20201025103149 37 17 1.0 5.0 0.00 0.00 0.00 80 1024.2
20201025102952 37 42 1.0 5.0 0.00 0.00 0.00 80 1024.2
20201025102748 37 64 1.0 5.0 0.00 0.00 0.00 81 1024.2
20201025102554 37 27 1.0 4.0 0.00 0.00 0.00 81 1024.2
20201025102347 36 22 2.0 4.0 0.00 0.00 0.00 81 1024.2
20201025102147 36 46 1.0 4.0 0.00 0.00 0.00 81 1024.1
20201025101946 36 36 1.0 4.0 0.00 0.00 0.00 82 1024.2
20201025101747 36 14 2.0 4.0 0.00 0.00 0.00 82 1024.2
20201025101545 36 359 1.0 4.0 0.00 0.00 0.00 82 1024.1
20201025101345 36 19 1.0 4.0 0.00 0.00 0.00 82 1024.2
20201025101146 36 19 1.0 4.0 0.00 0.00 0.00 82 1024.3
20201025100944 36 15 2.0 4.0 0.00 0.00 0.00 82 1024.3
20201025100748 36 16 2.0 4.0 0.00 0.00 0.00 82 1024.2
20201025100553 36 13 1.0 4.0 0.00 0.00 0.00 82 1024.2
20201025100343 36 17 2.0 6.0 0.00 0.00 0.00 82 1024.1
20201025100145 37 12 2.0 6.0 0.00 0.00 0.00 82 1024.1
20201025095943 37 11 2.0 6.0 0.00 0.00 0.00 82 1024.1
20201025095744 37 30 2.0 6.0 0.00 0.00 0.00 81 1024.0
20201025095541 37 11 2.0 6.0 0.00 0.00 0.00 81 1024.1
20201025095341 37 360 1.0 4.0 0.00 0.00 0.00 82 1024.1
20201025095143 37 17 1.0 4.0 0.00 0.00 0.00 81 1024.0
20201025094942 37 11 1.0 4.0 0.00 0.00 0.00 81 1024.1
20201025094743 37 14 1.0 7.0 0.00 0.00 0.00 81 1024.1
20201025094542 37 24 1.0 7.0 0.00 0.00 0.00 81 1024.1
20201025094339 37 22 2.0 7.0 0.00 0.00 0.00 81 1024.1
20201025094142 37 33 3.0 7.0 0.00 0.00 0.00 81 1024.0
20201025093939 37 18 3.0 7.0 0.00 0.00 0.00 81 1024.1
20201025093739 37 21 3.0 6.0 0.00 0.00 0.00 81 1024.1
20201025093539 37 27 3.0 6.0 0.00 0.00 0.00 81 1024.0
20201025093338 37 41 2.0 6.0 0.00 0.00 0.00 82 1023.9
20201025093138 37 51 2.0 6.0 0.00 0.00 0.00 82 1024.0
20201025092937 37 36 3.0 6.0 0.00 0.00 0.00 82 1023.9
20201025092737 36 34 2.0 6.0 0.00 0.00 0.00 82 1023.9
20201025092543 36 30 2.0 6.0 0.00 0.00 0.00 82 1023.9
20201025092339 36 25 1.0 6.0 0.00 0.00 0.00 83 1023.8
20201025092136 36 34 2.0 6.0 0.00 0.00 0.00 83 1023.8
20201025091938 36 36 2.0 6.0 0.00 0.00 0.00 83 1023.7
20201025091738 36 6 1.0 4.0 0.00 0.00 0.00 83 1023.8
20201025091535 36 16 1.0 4.0 0.00 0.00 0.00 83 1023.7
20201025091335 36 44 1.0 3.0 0.00 0.00 0.00 84 1023.6
20201025091134 36 32 1.0 3.0 0.00 0.00 0.00 84 1023.5
20201025090934 36 31 1.0 4.0 0.00 0.00 0.00 84 1023.5
20201025090736 36 44 2.0 4.0 0.00 0.00 0.00 84 1023.6
20201025090536 36 20 1.0 4.0 0.00 0.00 0.00 84 1023.7
20201025090332 36 11 2.0 4.0 0.00 0.00 0.00 84 1023.7
20201025090133 36 22 2.0 4.0 0.00 0.00 0.00 84 1023.6
20201025085932 36 25 1.0 5.0 0.00 0.00 0.00 85 1023.6
20201025085731 36 9 1.0 5.0 0.00 0.00 0.00 85 1023.5
20201025085532 36 2 1.0 5.0 0.00 0.00 0.00 85 1023.4
20201025085331 36 15 2.0 5.0 0.00 0.00 0.00 85 1023.4
20201025085131 36 10 1.0 5.0 0.00 0.00 0.00 85 1023.5
20201025084930 36 7 1.0 4.0 0.00 0.00 0.00 85 1023.4
20201025084730 36 8 1.0 4.0 0.00 0.00 0.00 85 1023.5
20201025084529 36 19 1.0 3.0 0.00 0.00 0.00 85 1023.5
20201025084329 36 23 1.0 3.0 0.00 0.00 0.00 85 1023.4
20201025084134 36 10 1.0 3.0 0.00 0.00 0.00 85 1023.3
20201025083929 36 29 1.0 3.0 0.00 0.00 0.00 86 1023.3
20201025083733 36 26 1.0 3.0 0.00 0.00 0.00 86 1023.4
20201025083528 36 10 1.0 3.0 0.00 0.00 0.00 86 1023.3
20201025083328 36 17 1.0 3.0 0.00 0.00 0.00 86 1023.3
20201025083127 36 22 1.0 2.0 0.00 0.00 0.00 86 1023.2
20201025082926 36 21 1.0 2.0 0.00 0.00 0.00 86 1023.2
20201025082726 36 18 0.0 2.0 0.00 0.00 0.00 86 1023.2
20201025082527 36 18 0.0 2.0 0.00 0.00 0.00 86 1023.2
20201025082328 36 0 0.0 2.0 0.00 0.00 0.00 86 1023.2
20201025082132 36 18 0.0 2.0 0.00 0.00 0.00 86 1023.2
20201025081926 36 18 0.0 2.0 0.00 0.00 0.00 86 1023.2
20201025081730 36 18 0.0 2.0 0.00 0.00 0.00 86 1023.2
20201025081528 36 0 0.0 2.0 0.00 0.00 0.00 86 1023.2
20201025081323 36 18 0.0 2.0 0.00 0.00 0.00 86 1023.1
20201025081127 36 18 0.0 2.0 0.00 0.00 0.00 86 1023.1
20201025080922 36 18 0.0 2.0 0.00 0.00 0.00 86 1023.2
20201025080721 36 18 0.0 2.0 0.00 0.00 0.00 86 1023.1
20201025080520 36 18 0.0 2.0 0.00 0.00 0.00 86 1023.2
20201025080321 36 21 0.0 2.0 0.00 0.00 0.00 86 1023.1
20201025080133 36 26 0.0 3.0 0.00 0.00 0.00 86 1023.1
20201025075919 36 27 0.0 3.0 0.00 0.00 0.00 86 1023.1
20201025075719 36 27 0.0 3.0 0.00 0.00 0.00 86 1023.1
20201025075519 36 35 1.0 3.0 0.00 0.00 0.00 86 1023.0
20201025075319 36 23 1.0 3.0 0.00 0.00 0.00 86 1023.1
20201025075118 36 27 1.0 4.0 0.00 0.00 0.00 86 1023.1
20201025074917 36 16 1.0 4.0 0.00 0.00 0.00 86 1023.2
20201025074718 36 5 1.0 4.0 0.00 0.00 0.00 86 1023.2
20201025074519 36 23 1.0 4.0 0.00 0.00 0.00 86 1023.2
20201025074330 36 9 1.0 4.0 0.00 0.00 0.00 86 1023.2
20201025074116 36 8 1.0 4.0 0.00 0.00 0.00 86 1023.2
20201025073916 36 10 1.0 4.0 0.00 0.00 0.00 86 1023.1
20201025073715 36 7 2.0 4.0 0.00 0.00 0.00 86 1023.2
20201025073514 36 2 1.0 4.0 0.00 0.00 0.00 86 1023.2
20201025073317 36 11 1.0 4.0 0.00 0.00 0.00 85 1023.2
20201025073115 36 17 1.0 4.0 0.00 0.00 0.00 85 1023.2
20201025072918 36 13 1.0 4.0 0.00 0.00 0.00 85 1023.2
20201025072715 36 7 2.0 4.0 0.00 0.00 0.00 85 1023.3
20201025072512 36 22 2.0 5.0 0.00 0.00 0.00 85 1023.2
20201025072312 36 30 1.0 5.0 0.00 0.00 0.00 85 1023.2
20201025072111 36 10 1.0 5.0 0.00 0.00 0.00 85 1023.2
20201025071913 36 14 2.0 5.0 0.00 0.00 0.00 85 1023.2
20201025071711 36 10 1.0 5.0 0.00 0.00 0.00 85 1023.4
20201025071524 36 6 1.0 4.0 0.00 0.00 0.00 85 1023.3
20201025071310 36 2 1.0 4.0 0.00 0.00 0.00 85 1023.4
20201025071109 36 360 1.0 4.0 0.00 0.00 0.00 85 1023.4
20201025070712 36 10 1.0 3.0 0.00 0.00 0.00 85 1023.5
20201025070523 36 16 1.0 3.0 0.00 0.00 0.00 85 1023.4
20201025070307 36 31 1.0 3.0 0.00 0.00 0.00 85 1023.4
20201025070111 36 13 1.0 3.0 0.00 0.00 0.00 85 1023.5
20201025065908 36 11 1.0 3.0 0.00 0.00 0.00 85 1023.5
20201025065706 36 31 1.0 3.0 0.00 0.00 0.00 85 1023.6
20201025065521 36 45 1.0 3.0 0.00 0.00 0.00 85 1023.6
20201025065105 36 51 1.0 2.0 0.00 0.00 0.00 85 1023.7
20201025064905 36 48 1.0 2.0 0.00 0.00 0.00 85 1023.6
20201025064705 36 38 1.0 2.0 0.00 0.00 0.00 85 1023.7
20201025064512 36 33 1.0 2.0 0.00 0.00 0.00 85 1023.6
20201025064306 36 15 0.0 2.0 0.00 0.00 0.00 84 1023.7
20201025064103 37 15 0.0 2.0 0.00 0.00 0.00 84 1023.7
20201025063904 37 0 0.0 2.0 0.00 0.00 0.00 85 1023.7
20201025063702 37 15 0.0 2.0 0.00 0.00 0.00 84 1023.6
20201025063509 37 15 0.0 2.0 0.00 0.00 0.00 84 1023.7
20201025063301 37 10 0.0 2.0 0.00 0.00 0.00 84 1023.7
20201025063100 37 1 0.0 2.0 0.00 0.00 0.00 84 1023.6
20201025062900 36 1 0.0 2.0 0.00 0.00 0.00 84 1023.6
20201025062701 36 1 0.0 2.0 0.00 0.00 0.00 84 1023.6
20201025062458 36 1 0.0 2.0 0.00 0.00 0.00 84 1023.6
20201025062258 36 1 0.0 2.0 0.00 0.00 0.00 84 1023.6
20201025062058 37 0 0.0 2.0 0.00 0.00 0.00 83 1023.6
20201025061857 36 0 0.0 2.0 0.00 0.00 0.00 83 1023.6
20201025061700 37 0 0.0 2.0 0.00 0.00 0.00 83 1023.7
20201025061458 37 1 0.0 2.0 0.00 0.00 0.00 82 1023.7
20201025061256 37 1 0.0 2.0 0.00 0.00 0.00 82 1023.8
20201025061055 37 0 0.0 1.0 0.00 0.00 0.00 82 1023.7
20201025060856 37 1 0.0 1.0 0.00 0.00 0.00 82 1023.8
20201025060655 37 1 0.0 1.0 0.00 0.00 0.00 82 1023.8
20201025060455 37 1 0.0 1.0 0.00 0.00 0.00 81 1023.7
20201025060253 37 1 0.0 2.0 0.00 0.00 0.00 81 1023.8
20201025060053 37 1 0.0 2.0 0.00 0.00 0.00 81 1023.7
20201025055853 37 1 0.0 2.0 0.00 0.00 0.00 81 1023.7
20201025055652 37 1 0.0 2.0 0.00 0.00 0.00 81 1023.7
20201025055454 37 0 0.0 2.0 0.00 0.00 0.00 81 1023.6
20201025055252 38 1 0.0 2.0 0.00 0.00 0.00 81 1023.6
20201025055052 38 1 0.0 2.0 0.00 0.00 0.00 81 1023.6
20201025054854 38 1 0.0 2.0 0.00 0.00 0.00 81 1023.6
20201025054651 38 1 0.0 2.0 0.00 0.00 0.00 81 1023.6
20201025054459 38 1 0.0 2.0 0.00 0.00 0.00 81 1023.7
20201025054252 38 360 0.0 2.0 0.00 0.00 0.00 81 1023.6
20201025054051 38 360 0.0 2.0 0.00 0.00 0.00 81 1023.6
20201025053852 38 1 0.0 2.0 0.00 0.00 0.00 81 1023.6
20201025053649 38 1 0.0 2.0 0.00 0.00 0.00 81 1023.7
20201025053448 38 1 0.0 2.0 0.00 0.00 0.00 81 1023.6
20201025053248 38 7 0.0 2.0 0.00 0.00 0.00 81 1023.6
20201025053048 38 60 1.0 2.0 0.00 0.00 0.00 81 1023.6
20201025052852 38 89 0.0 2.0 0.00 0.00 0.00 81 1023.6
20201025052647 38 64 0.0 2.0 0.00 0.00 0.00 81 1023.6
20201025052453 38 32 0.0 2.0 0.00 0.00 0.00 81 1023.6
20201025052247 38 37 0.0 2.0 0.00 0.00 0.00 81 1023.5
20201025052049 38 72 0.0 3.0 0.00 0.00 0.00 81 1023.5
20201025051845 38 74 0.0 3.0 0.00 0.00 0.00 80 1023.4
20201025051649 38 87 1.0 3.0 0.00 0.00 0.00 80 1023.6
20201025051453 38 79 1.0 4.0 0.00 0.00 0.00 80 1023.4
20201025051245 38 64 0.0 4.0 0.00 0.00 0.00 80 1023.4
20201025051046 38 79 0.0 4.0 0.00 0.00 0.00 80 1023.3
20201025050844 38 58 2.0 4.0 0.00 0.00 0.00 80 1023.4
20201025050704 38 70 1.0 4.0 0.00 0.00 0.00 80 1023.4
20201025050446 38 86 1.0 2.0 0.00 0.00 0.00 80 1023.5
20201025050242 38 58 1.0 2.0 0.00 0.00 0.00 80 1023.5
20201025050046 38 32 1.0 2.0 0.00 0.00 0.00 80 1023.6
20201025045843 38 46 1.0 2.0 0.00 0.00 0.00 80 1023.6
20201025045643 38 83 1.0 2.0 0.00 0.00 0.00 80 1023.6
20201025045443 38 89 0.0 2.0 0.00 0.00 0.00 80 1023.6
20201025045241 38 89 0.0 2.0 0.00 0.00 0.00 80 1023.5
20201025045041 38 47 0.0 2.0 0.00 0.00 0.00 80 1023.5
20201025044643 38 40 1.0 2.0 0.00 0.00 0.00 80 1023.4
20201025044440 38 358 1.0 2.0 0.00 0.00 0.00 79 1023.4
20201025044244 38 2 1.0 3.0 0.00 0.00 0.00 79 1023.4
20201025044043 38 4 1.0 3.0 0.00 0.00 0.00 79 1023.3
20201025043841 38 32 1.0 3.0 0.00 0.00 0.00 79 1023.3
20201025043638 38 64 1.0 4.0 0.00 0.00 0.00 79 1023.3
20201025043438 38 42 1.0 4.0 0.00 0.00 0.00 79 1023.3
20201025043245 38 43 1.0 4.0 0.00 0.00 0.00 78 1023.3
20201025043042 38 51 2.0 4.0 0.00 0.00 0.00 78 1023.3
20201025042842 38 47 1.0 5.0 0.00 0.00 0.00 78 1023.4
20201025042638 38 59 1.0 5.0 0.00 0.00 0.00 78 1023.3
20201025042436 38 64 1.0 5.0 0.00 0.00 0.00 78 1023.3
20201025042235 38 44 2.0 5.0 0.00 0.00 0.00 78 1023.4
20201025042035 38 47 1.0 5.0 0.00 0.00 0.00 78 1023.4
20201025041839 39 44 0.0 3.0 0.00 0.00 0.00 78 1023.4
20201025041634 39 44 0.0 4.0 0.00 0.00 0.00 78 1023.4
20201025041434 39 54 1.0 5.0 0.00 0.00 0.00 78 1023.4
20201025041234 39 48 2.0 5.0 0.00 0.00 0.00 77 1023.4
20201025041034 39 48 2.0 5.0 0.00 0.00 0.00 77 1023.4
20201025040834 39 52 1.0 5.0 0.00 0.00 0.00 77 1023.4
20201025040636 39 22 2.0 5.0 0.00 0.00 0.00 77 1023.4
20201025040432 39 36 1.0 4.0 0.00 0.00 0.00 77 1023.5
20201025040233 39 47 1.0 4.0 0.00 0.00 0.00 77 1023.4
20201025040031 39 56 1.0 3.0 0.00 0.00 0.00 77 1023.4
20201025035831 39 51 1.0 4.0 0.00 0.00 0.00 77 1023.5
20201025035630 39 38 1.0 4.0 0.00 0.00 0.00 77 1023.5
20201025035431 39 33 0.0 4.0 0.00 0.00 0.00 76 1023.5
20201025035231 39 40 1.0 4.0 0.00 0.00 0.00 76 1023.5
20201025035031 39 25 2.0 4.0 0.00 0.00 0.00 76 1023.5
20201025034829 39 23 1.0 4.0 0.00 0.00 0.00 76 1023.5
20201025034635 40 33 1.0 4.0 0.00 0.00 0.00 76 1023.5
20201025034428 40 64 1.0 7.0 0.00 0.00 0.00 76 1023.6
20201025034228 40 77 2.0 7.0 0.00 0.00 0.00 76 1023.6
20201025034032 40 40 1.0 7.0 0.00 0.00 0.00 76 1023.6
20201025033827 39 25 2.0 7.0 0.00 0.00 0.00 76 1023.6
20201025033627 39 38 3.0 7.0 0.00 0.00 0.00 76 1023.6
20201025033426 40 49 2.0 6.0 0.00 0.00 0.00 76 1023.5
20201025033227 40 49 1.0 4.0 0.00 0.00 0.00 76 1023.5
20201025033028 40 26 2.0 5.0 0.00 0.00 0.00 76 1023.5
20201025032827 40 35 2.0 5.0 0.00 0.00 0.00 76 1023.4
20201025032629 40 62 1.0 7.0 0.00 0.00 0.00 76 1023.5
20201025032425 40 58 2.0 7.0 0.00 0.00 0.00 76 1023.5
20201025032224 40 40 2.0 7.0 0.00 0.00 0.00 76 1023.4
20201025032028 40 30 2.0 7.0 0.00 0.00 0.00 76 1023.4
20201025031826 40 61 2.0 7.0 0.00 0.00 0.00 76 1023.4
20201025031624 40 57 2.0 6.0 0.00 0.00 0.00 76 1023.4
20201025031425 40 47 2.0 6.0 0.00 0.00 0.00 75 1023.3
20201025031223 40 50 2.0 6.0 0.00 0.00 0.00 75 1023.4
20201025031025 40 44 2.0 6.0 0.00 0.00 0.00 75 1023.3
20201025030822 40 50 2.0 6.0 0.00 0.00 0.00 75 1023.3
20201025030622 40 51 3.0 6.0 0.00 0.00 0.00 75 1023.3
20201025030421 40 46 3.0 6.0 0.00 0.00 0.00 75 1023.3
20201025030221 40 66 3.0 6.0 0.00 0.00 0.00 75 1023.3
20201025030033 40 55 2.0 5.0 0.00 0.00 0.00 75 1023.3
20201025025820 40 30 3.0 6.0 0.00 0.00 0.00 76 1023.3
20201025025621 40 45 2.0 6.0 0.00 0.00 0.00 75 1023.3
20201025025422 40 72 1.0 6.0 0.00 0.00 0.00 76 1023.3
20201025025220 40 39 2.0 6.0 0.00 0.00 0.00 76 1023.2
20201025025019 40 52 3.0 6.0 0.00 0.00 0.00 76 1023.1
20201025024818 40 34 3.0 6.0 0.00 0.00 0.00 76 1023.1
20201025024618 40 42 2.0 6.0 0.00 0.00 0.00 75 1023.1
20201025024417 40 39 2.0 6.0 0.00 0.00 0.00 75 1023.1
20201025024220 40 30 2.0 6.0 0.00 0.00 0.00 75 1023.1
20201025024017 40 23 2.0 6.0 0.00 0.00 0.00 75 1023.0
20201025023819 40 41 3.0 6.0 0.00 0.00 0.00 75 1023.0
20201025023618 40 42 1.0 7.0 0.00 0.00 0.00 75 1023.0
20201025023416 40 42 1.0 10.0 0.00 0.00 0.00 75 1023.0
20201025023215 40 43 3.0 10.0 0.00 0.00 0.00 75 1022.9
20201025023029 40 52 4.0 10.0 0.00 0.00 0.00 75 1022.9
20201025022817 40 43 5.0 10.0 0.00 0.00 0.00 75 1023.1
20201025022620 40 44 3.0 7.0 0.00 0.00 0.00 75 1023.0
20201025022417 40 55 3.0 7.0 0.00 0.00 0.00 74 1023.0
20201025022215 40 38 4.0 9.0 0.00 0.00 0.00 74 1023.0
20201025022031 40 49 4.0 9.0 0.00 0.00 0.00 74 1023.0
20201025021814 40 36 4.0 9.0 0.00 0.00 0.00 74 1023.0
20201025021626 40 32 4.0 9.0 0.00 0.00 0.00 74 1022.9
20201025021412 40 60 3.0 9.0 0.00 0.00 0.00 74 1022.9
20201025021212 40 71 2.0 9.0 0.00 0.00 0.00 74 1022.9
20201025021028 40 48 4.0 13.0 0.00 0.00 0.00 74 1022.9
20201025020818 40 34 3.0 13.0 0.00 0.00 0.00 74 1022.9
20201025020615 40 21 2.0 13.0 0.00 0.00 0.00 74 1022.8
20201025020412 40 25 4.0 13.0 0.00 0.00 0.00 74 1022.8
20201025020216 41 33 4.0 13.0 0.00 0.00 0.00 73 1022.8
20201025020034 41 33 4.0 11.0 0.00 0.00 0.00 73 1022.8
20201025015810 41 44 3.0 11.0 0.00 0.04 0.00 74 1022.8
20201025015613 41 33 3.0 8.0 0.00 0.04 0.00 73 1022.7
20201025015414 41 23 2.0 7.0 0.00 0.04 0.00 73 1022.6
20201025015209 41 41 3.0 8.0 0.00 0.04 0.00 73 1022.5
20201025015026 41 47 3.0 8.0 0.00 0.04 0.00 73 1022.4
20201025014809 41 57 3.0 8.0 0.00 0.04 0.00 73 1022.5
20201025014408 41 40 3.0 8.0 0.00 0.04 0.00 74 1022.5
20201025014209 41 37 3.0 9.0 0.00 0.04 0.00 73 1022.5
20201025014012 41 44 5.0 11.0 0.00 0.04 0.00 73 1022.5
20201025013807 41 32 4.0 11.0 0.00 0.04 0.00 73 1022.6
20201025013605 41 35 4.0 11.0 0.00 0.04 0.00 73 1022.5
20201025013405 42 26 3.0 11.0 0.00 0.04 0.00 74 1022.5
20201025013205 42 37 3.0 11.0 0.00 0.04 0.00 74 1022.6
20201025012804 42 29 2.0 9.0 0.00 0.04 0.00 74 1022.6
20201025012602 42 40 4.0 10.0 0.00 0.04 0.00 73 1022.5
20201025012403 42 48 3.0 10.0 0.00 0.04 0.00 73 1022.5
20201025012202 42 32 3.0 10.0 0.00 0.04 0.00 73 1022.5
20201025012007 42 34 4.0 10.0 0.00 0.04 0.00 73 1022.5
20201025011802 42 20 3.0 6.0 0.00 0.04 0.00 73 1022.5
20201025011603 42 356 2.0 5.0 0.00 0.04 0.00 74 1022.5
20201025011400 42 24 1.0 5.0 0.00 0.04 0.00 74 1022.4
20201025011202 42 59 1.0 5.0 0.00 0.04 0.00 74 1022.3
20201025011000 42 37 2.0 4.0 0.00 0.04 0.00 74 1022.2
20201025010801 42 33 1.0 4.0 0.00 0.04 0.00 74 1022.2
20201025010559 42 56 1.0 4.0 0.00 0.04 0.00 74 1022.2
20201025010358 42 45 1.0 5.0 0.00 0.04 0.00 74 1022.2
20201025010158 42 9 2.0 6.0 0.00 0.04 0.00 73 1022.1
20201025005957 42 20 2.0 6.0 0.00 0.28 0.00 73 1022.2
20201025005800 42 30 2.0 6.0 0.00 0.28 0.00 73 1022.2
20201025005559 42 16 2.0 6.0 0.00 0.28 0.00 73 1022.1
20201025005356 42 34 3.0 8.0 0.00 0.28 0.00 73 1022.1
20201025005157 42 28 3.0 8.0 0.00 0.28 0.00 73 1022.0
20201025004956 42 17 2.0 8.0 0.00 0.28 0.00 72 1022.0
20201025004755 42 38 3.0 8.0 0.00 0.28 0.00 72 1022.0
20201025004556 42 33 3.0 9.0 0.00 0.28 0.00 72 1021.9
20201025004359 42 49 2.0 12.0 0.00 0.28 0.00 72 1021.8
20201025004156 42 51 3.0 12.0 0.00 0.28 0.00 72 1021.8
20201025003955 42 47 5.0 12.0 0.00 0.28 0.00 72 1021.7
20201025003754 42 45 5.0 12.0 0.00 0.28 0.00 71 1021.7
20201025003554 42 55 4.0 12.0 0.00 0.28 0.00 72 1021.8
20201025003357 42 37 4.0 10.0 0.00 0.28 0.00 71 1021.7
20201025003153 43 50 4.0 10.0 0.00 0.28 0.00 71 1021.7
20201025002957 43 38 4.0 10.0 0.00 0.28 0.00 71 1021.7
20201025002753 43 31 5.0 10.0 0.00 0.28 0.00 70 1021.8
20201025002554 43 32 3.0 10.0 0.00 0.28 0.00 70 1021.8
20201025002353 43 19 2.0 9.0 0.00 0.28 0.00 71 1021.7
20201025002155 43 31 3.0 9.0 0.00 0.28 0.00 72 1021.8
20201025001959 43 29 4.0 9.0 0.00 0.28 0.00 71 1021.8
20201025001751 43 23 3.0 9.0 0.00 0.28 0.00 71 1021.7
20201025001555 43 26 3.0 9.0 0.00 0.28 0.00 70 1021.7
20201025001351 43 32 4.0 9.0 0.00 0.28 0.00 70 1021.7
20201025001149 43 26 4.0 9.0 0.00 0.28 0.00 69 1021.7
20201025000752 43 24 2.0 4.0 0.00 0.28 0.00 66 1021.7
20201025000551 43 24 2.0 4.0 0.00 0.28 0.00 64 1021.7
20201025000351 43 28 1.0 4.0 0.00 0.28 0.00 64 1021.7
20201025000148 43 24 1.0 4.0 0.00 0.28 0.00 63 1021.7
20201024235948 43 28 1.0 4.0 0.00 0.42 0.00 63 1021.7
20201024235752 43 48 1.0 4.0 0.00 0.42 0.00 63 1021.8
20201024235547 43 38 1.0 4.0 0.00 0.42 0.00 63 1021.7
20201024235346 43 46 1.0 3.0 0.00 0.42 0.00 63 1021.7
20201024235145 43 97 1.0 3.0 0.00 0.42 0.00 63 1021.7
20201024234945 43 33 0.0 5.0 0.00 0.42 0.00 64 1021.7
20201024234745 43 354 1.0 5.0 0.00 0.42 0.00 63 1021.7
20201024234544 43 352 0.0 5.0 0.00 0.42 0.00 63 1021.6
20201024234343 44 2 1.0 5.0 0.00 0.42 0.00 63 1021.7
20201024234143 44 43 2.0 5.0 0.00 0.42 0.00 63 1021.7
20201024233949 44 66 1.0 4.0 0.00 0.42 0.00 63 1021.6
20201024233743 44 64 2.0 4.0 0.00 0.42 0.00 63 1021.6
20201024233544 44 115 1.0 3.0 0.00 0.42 0.00 63 1021.7
20201024233342 44 52 1.0 3.0 0.00 0.42 0.00 63 1021.6
20201024233142 44 47 1.0 3.0 0.00 0.42 0.00 63 1021.6
20201024232942 44 351 1.0 3.0 0.00 0.42 0.00 63 1021.6
20201024232743 44 31 1.0 3.0 0.00 0.42 0.00 63 1021.7
20201024232540 44 59 1.0 6.0 0.00 0.42 0.00 62 1021.6
20201024232340 44 30 1.0 6.0 0.00 0.42 0.00 62 1021.5
20201024232140 44 55 1.0 6.0 0.00 0.42 0.00 62 1021.5
20201024231940 44 97 1.0 6.0 0.00 0.42 0.00 62 1021.5
20201024231739 44 80 1.0 6.0 0.00 0.42 0.00 62 1021.6
20201024231539 44 99 2.0 4.0 0.00 0.42 0.00 62 1021.5
20201024231337 44 43 1.0 4.0 0.00 0.42 0.00 62 1021.5
20201024231140 44 345 1.0 4.0 0.00 0.42 0.00 62 1021.4
20201024230945 44 23 1.0 3.0 0.00 0.42 0.00 62 1021.4
20201024230737 44 69 0.0 4.0 0.00 0.42 0.00 62 1021.4
20201024230541 44 49 1.0 4.0 0.00 0.42 0.00 62 1021.3
20201024230336 44 342 1.0 4.0 0.00 0.42 0.00 61 1021.4
20201024230138 44 50 1.0 4.0 0.00 0.42 0.00 61 1021.4
20201024225935 44 47 1.0 4.0 0.00 0.42 0.00 61 1021.3
20201024225736 44 77 1.0 4.0 0.00 0.42 0.00 61 1021.2
20201024225535 44 53 1.0 4.0 0.00 0.42 0.00 61 1021.3
20201024225334 44 53 1.0 3.0 0.00 0.42 0.00 61 1021.3
20201024225134 45 44 1.0 3.0 0.00 0.42 0.00 61 1021.3
20201024224933 45 233 1.0 3.0 0.00 0.42 0.00 61 1021.3
20201024224734 45 46 1.0 3.0 0.00 0.42 0.00 60 1021.3
20201024224549 45 318 0.0 2.0 0.00 0.42 0.00 61 1021.3
20201024224335 45 53 0.0 2.0 0.00 0.42 0.00 60 1021.4
20201024224133 45 79 0.0 5.0 0.00 0.42 0.00 60 1021.3
20201024223931 45 60 0.0 5.0 0.00 0.42 0.00 60 1021.3
20201024223731 45 33 0.0 5.0 0.00 0.42 0.00 59 1021.3
20201024223536 45 70 1.0 5.0 0.00 0.42 0.00 59 1021.3
20201024223332 45 61 1.0 5.0 0.00 0.42 0.00 60 1021.3
20201024223132 45 337 1.0 3.0 0.00 0.42 0.00 59 1021.2
20201024222935 45 10 1.0 3.0 0.00 0.42 0.00 59 1021.2
20201024222730 45 44 1.0 2.0 0.00 0.42 0.00 59 1021.2
20201024222529 45 39 0.0 2.0 0.00 0.42 0.00 60 1021.2
20201024222329 45 67 0.0 3.0 0.00 0.42 0.00 60 1021.2
20201024222128 45 63 0.0 3.0 0.00 0.42 0.00 60 1021.1
20201024221928 45 63 0.0 3.0 0.00 0.42 0.00 59 1021.1
20201024221728 45 40 1.0 3.0 0.00 0.42 0.00 59 1021.1
20201024221328 45 248 0.0 2.0 0.00 0.42 0.00 59 1021.0
20201024221127 45 248 0.0 2.0 0.00 0.42 0.00 59 1021.0
20201024220928 45 249 0.0 2.0 0.00 0.42 0.00 58 1021.0
20201024220728 45 249 0.0 3.0 0.00 0.42 0.00 58 1021.0
20201024220526 45 250 0.0 3.0 0.00 0.42 0.00 58 1021.0
20201024220325 45 231 1.0 3.0 0.00 0.42 0.00 58 1021.0
20201024220132 45 105 1.0 3.0 0.00 0.42 0.00 57 1021.0
20201024215926 45 56 1.0 3.0 0.00 0.42 0.00 58 1020.9
20201024215724 45 49 0.0 3.0 0.00 0.42 0.00 58 1020.8
20201024215525 45 36 0.0 3.0 0.00 0.42 0.00 58 1020.8
20201024215327 45 61 1.0 3.0 0.00 0.42 0.00 57 1020.8
20201024215123 46 93 0.0 2.0 0.00 0.42 0.00 57 1020.8
20201024214922 46 101 0.0 2.0 0.00 0.42 0.00 58 1020.8
20201024214726 46 104 0.0 2.0 0.00 0.42 0.00 57 1020.8
20201024214522 46 108 0.0 2.0 0.00 0.42 0.00 57 1020.8
20201024214324 46 95 1.0 2.0 0.00 0.42 0.00 57 1020.8
20201024214121 46 158 0.0 2.0 0.00 0.42 0.00 57 1020.9
20201024213921 46 215 0.0 2.0 0.00 0.42 0.00 57 1020.8
20201024213722 46 173 0.0 2.0 0.00 0.42 0.00 57 1020.8
20201024213525 46 71 0.0 2.0 0.00 0.42 0.00 58 1020.7
20201024213321 46 66 0.0 2.0 0.00 0.42 0.00 57 1020.7
20201024213119 46 80 0.0 2.0 0.00 0.42 0.00 58 1020.8
20201024212922 46 87 0.0 2.0 0.00 0.42 0.00 57 1020.8
20201024212720 46 58 1.0 2.0 0.00 0.42 0.00 57 1020.8
20201024212518 46 360 1.0 2.0 0.00 0.42 0.00 58 1020.8
20201024212318 46 191 1.0 6.0 0.00 0.42 0.00 57 1020.8
20201024212117 46 301 0.0 6.0 0.00 0.42 0.00 57 1020.8
20201024211920 46 150 1.0 6.0 0.00 0.42 0.00 57 1020.8
20201024211717 46 196 1.0 6.0 0.00 0.42 0.00 57 1020.8
20201024211528 46 72 2.0 6.0 0.00 0.42 0.00 56 1020.8
20201024211316 46 32 1.0 3.0 0.00 0.42 0.00 56 1020.8
20201024211115 46 88 1.0 3.0 0.00 0.42 0.00 56 1020.8
20201024210917 46 66 0.0 3.0 0.00 0.42 0.00 57 1020.8
20201024210731 46 35 1.0 4.0 0.00 0.42 0.00 56 1020.8
20201024210521 46 52 1.0 4.0 0.00 0.42 0.00 56 1020.8
20201024210315 46 360 1.0 4.0 0.00 0.42 0.00 55 1020.8
20201024210115 46 13 2.0 4.0 0.00 0.42 0.00 56 1020.8
20201024205914 46 41 1.0 4.0 0.00 0.42 0.00 56 1020.8
20201024205714 46 92 1.0 4.0 0.00 0.42 0.00 56 1020.8
20201024205520 46 55 1.0 4.0 0.00 0.42 0.00 57 1020.7
20201024205312 46 356 1.0 4.0 0.00 0.42 0.00 56 1020.7
20201024205112 46 17 1.0 4.0 0.00 0.42 0.00 56 1020.8
20201024204912 46 42 1.0 4.0 0.00 0.42 0.00 56 1020.8
20201024204718 46 153 1.0 3.0 0.00 0.42 0.00 57 1020.9
20201024204518 46 347 1.0 4.0 0.00 0.42 0.00 57 1020.9
20201024204321 46 15 1.0 4.0 0.00 0.42 0.00 57 1020.9
20201024204115 46 84 1.0 4.0 0.00 0.42 0.00 56 1020.9
20201024203910 46 13 1.0 4.0 0.00 0.42 0.00 56 1020.9
20201024203714 46 345 1.0 4.0 0.00 0.42 0.00 56 1020.9
20201024203511 46 47 1.0 4.0 0.00 0.42 0.00 57 1020.9
20201024203308 46 80 1.0 4.0 0.00 0.42 0.00 56 1020.8
20201024203112 46 42 1.0 3.0 0.00 0.42 0.00 57 1020.9
20201024202908 46 65 1.0 3.0 0.00 0.42 0.00 56 1020.8
20201024202510 47 38 1.0 4.0 0.00 0.42 0.00 56 1020.7
20201024202306 47 5 1.0 5.0 0.00 0.42 0.00 56 1020.8
20201024202106 47 66 1.0 5.0 0.00 0.42 0.00 56 1020.7
20201024201911 47 51 2.0 5.0 0.00 0.42 0.00 56 1020.8
20201024201706 47 73 1.0 5.0 0.00 0.42 0.00 55 1020.7
20201024201304 47 101 1.0 4.0 0.00 0.42 0.00 55 1020.7
20201024201103 47 114 1.0 4.0 0.00 0.42 0.00 55 1020.7
20201024200904 47 139 1.0 3.0 0.00 0.42 0.00 55 1020.7
20201024200704 47 101 1.0 3.0 0.00 0.42 0.00 55 1020.8
20201024200509 47 126 1.0 5.0 0.00 0.42 0.00 55 1020.9
20201024200303 47 100 1.0 5.0 0.00 0.42 0.00 55 1020.8
20201024200104 47 97 1.0 5.0 0.00 0.42 0.00 55 1020.8
20201024195902 47 40 1.0 7.0 0.00 0.42 0.00 55 1020.8
20201024195701 47 36 2.0 7.0 0.00 0.42 0.00 55 1020.8
20201024195512 47 7 1.0 7.0 0.00 0.42 0.00 54 1020.8
20201024195305 47 338 2.0 7.0 0.00 0.42 0.00 54 1020.8
20201024195105 47 45 2.0 7.0 0.00 0.42 0.00 54 1020.8
20201024194903 47 31 2.0 6.0 0.00 0.42 0.00 54 1020.7
20201024194702 47 33 1.0 3.0 0.00 0.42 0.00 55 1020.7
20201024194507 47 53 0.0 5.0 0.00 0.42 0.00 56 1020.7
20201024194258 47 76 0.0 5.0 0.00 0.42 0.00 55 1020.7
20201024194058 47 130 1.0 5.0 0.00 0.42 0.00 56 1020.6
20201024193902 47 266 1.0 5.0 0.00 0.42 0.00 56 1020.7
20201024193657 47 70 2.0 5.0 0.00 0.42 0.00 56 1020.8
20201024193459 47 62 1.0 5.0 0.00 0.42 0.00 58 1020.7
20201024193100 46 152 1.0 3.0 0.00 0.42 0.00 58 1020.7
20201024192856 46 147 1.0 5.0 0.00 0.42 0.00 58 1020.7
20201024192655 46 156 1.0 5.0 0.00 0.42 0.00 58 1020.6
20201024192455 46 237 1.0 6.0 0.00 0.42 0.00 60 1020.7
20201024192305 46 359 1.0 7.0 0.00 0.42 0.00 60 1020.6
20201024192054 46 54 1.0 7.0 0.00 0.42 0.00 60 1020.7
20201024191854 46 40 2.0 7.0 0.00 0.42 0.00 60 1020.7
20201024191653 46 15 3.0 7.0 0.00 0.42 0.00 60 1020.8
20201024191456 46 29 2.0 7.0 0.00 0.42 0.00 60 1020.8
20201024191252 46 159 1.0 3.0 0.00 0.42 0.00 61 1020.7
20201024191054 46 172 1.0 2.0 0.00 0.42 0.00 60 1020.7
20201024190852 46 106 1.0 2.0 0.00 0.42 0.00 61 1020.8
20201024190651 46 18 0.0 2.0 0.00 0.42 0.00 61 1020.8
20201024190451 46 0 0.0 2.0 0.00 0.42 0.00 63 1020.9
20201024190251 46 16 1.0 2.0 0.00 0.42 0.00 63 1020.9
20201024190053 46 38 1.0 2.0 0.00 0.42 0.00 61 1021.0
20201024185850 46 60 0.0 3.0 0.00 0.42 0.00 62 1020.9
20201024185651 46 59 0.0 3.0 0.00 0.42 0.00 61 1020.9
20201024185451 46 61 0.0 3.0 0.00 0.42 0.00 61 1020.9
20201024185252 46 61 1.0 4.0 0.00 0.42 0.00 62 1020.9
20201024185047 46 18 0.0 4.0 0.00 0.42 0.00 61 1020.9
20201024184849 46 5 0.0 5.0 0.00 0.42 0.00 62 1021.0
20201024184650 46 20 1.0 5.0 0.00 0.42 0.00 62 1020.9
20201024184450 46 36 1.0 5.0 0.00 0.42 0.00 62 1020.9
20201024184246 46 54 2.0 5.0 0.00 0.42 0.00 60 1020.9
20201024184046 46 101 0.0 5.0 0.00 0.42 0.00 61 1020.9
20201024183645 46 93 0.0 2.0 0.00 0.42 0.00 61 1020.9
20201024183446 46 93 0.0 2.0 0.00 0.42 0.00 61 1020.9
20201024183243 45 14 0.0 3.0 0.00 0.42 0.00 62 1020.8
20201024183043 45 14 0.0 4.0 0.00 0.42 0.00 61 1020.8
20201024182843 45 14 1.0 4.0 0.00 0.42 0.00 61 1020.8
20201024182647 45 19 1.0 4.0 0.00 0.42 0.00 62 1020.8
20201024182443 45 62 2.0 4.0 0.00 0.42 0.00 62 1020.9
20201024182244 46 48 2.0 4.0 0.00 0.42 0.00 62 1020.9
20201024182041 46 41 1.0 6.0 0.00 0.42 0.00 62 1020.8
20201024181845 46 44 1.0 6.0 0.00 0.42 0.00 62 1020.9
20201024181440 46 37 2.0 6.0 0.00 0.42 0.00 61 1020.9
20201024181240 46 43 3.0 6.0 0.00 0.42 0.00 60 1020.9
20201024181039 46 57 2.0 6.0 0.00 0.42 0.00 60 1020.8
20201024180839 46 62 1.0 3.0 0.00 0.42 0.00 61 1020.8
20201024180639 46 77 1.0 3.0 0.00 0.42 0.00 62 1020.9
20201024180438 46 101 0.0 2.0 0.00 0.42 0.00 61 1020.9
20201024180238 46 64 0.0 2.0 0.00 0.42 0.00 62 1020.9
20201024180043 46 339 0.0 5.0 0.00 0.42 0.00 62 1020.9
20201024175838 46 328 0.0 5.0 0.00 0.42 0.00 62 1020.9
20201024175637 46 300 0.0 6.0 0.00 0.42 0.00 62 1021.0
20201024175439 46 342 1.0 6.0 0.00 0.42 0.00 61 1020.9
20201024175241 46 30 1.0 6.0 0.00 0.42 0.00 62 1021.0
20201024175035 46 35 1.0 6.0 0.00 0.42 0.00 62 1021.0
20201024174840 46 63 3.0 6.0 0.00 0.42 0.00 62 1021.0
20201024174640 46 82 1.0 5.0 0.00 0.42 0.00 62 1021.0
20201024174437 46 40 1.0 4.0 0.00 0.42 0.00 61 1021.0
20201024174234 46 29 2.0 4.0 0.00 0.42 0.00 61 1021.1
20201024174034 46 12 2.0 4.0 0.00 0.42 0.00 62 1021.1
20201024173833 46 14 1.0 4.0 0.00 0.42 0.00 63 1021.1
20201024173433 46 16 1.0 4.0 0.00 0.42 0.00 63 1021.2
20201024173231 46 4 2.0 4.0 0.00 0.42 0.00 62 1021.1
20201024172834 46 16 1.0 2.0 0.00 0.42 0.00 63 1021.2
20201024172630 46 13 1.0 2.0 0.00 0.42 0.00 62 1021.3
20201024172430 46 45 1.0 2.0 0.00 0.42 0.00 63 1021.3
20201024172229 45 30 1.0 2.0 0.00 0.42 0.00 64 1021.3
20201024172029 45 14 1.0 3.0 0.00 0.42 0.00 64 1021.3
20201024171832 45 346 0.0 5.0 0.00 0.42 0.00 63 1021.4
20201024171632 45 4 1.0 5.0 0.00 0.42 0.00 64 1021.5
20201024171428 45 23 1.0 5.0 0.00 0.42 0.00 65 1021.5
20201024171228 45 40 2.0 5.0 0.00 0.42 0.00 65 1021.5
20201024171031 45 61 2.0 4.0 0.00 0.42 0.00 65 1021.5
20201024170827 45 48 2.0 4.0 0.00 0.42 0.00 65 1021.5
20201024170626 45 36 2.0 3.0 0.00 0.42 0.00 66 1021.5
20201024170426 45 51 1.0 3.0 0.00 0.42 0.00 65 1021.6
20201024170227 45 33 1.0 5.0 0.00 0.42 0.00 65 1021.5
20201024170027 44 344 1.0 8.0 0.00 0.42 0.00 65 1021.5
20201024165825 44 16 0.0 8.0 0.00 0.42 0.00 66 1021.5
20201024165627 44 68 2.0 8.0 0.00 0.42 0.00 65 1021.6
20201024165424 44 30 4.0 8.0 0.00 0.42 0.00 64 1021.6
20201024165223 45 59 4.0 8.0 0.00 0.42 0.00 65 1021.6
20201024165024 45 39 1.0 5.0 0.00 0.42 0.00 66 1021.5
20201024164823 45 34 1.0 5.0 0.00 0.42 0.00 65 1021.5
20201024164622 45 55 2.0 5.0 0.00 0.42 0.00 65 1021.5
20201024164423 45 55 1.0 5.0 0.00 0.42 0.00 66 1021.5
20201024164221 44 33 1.0 5.0 0.00 0.42 0.00 66 1021.5
20201024164024 44 12 1.0 5.0 0.00 0.42 0.00 66 1021.4
20201024163820 44 352 1.0 5.0 0.00 0.42 0.00 66 1021.5
20201024163620 44 23 2.0 5.0 0.00 0.42 0.00 66 1021.5
20201024163425 44 30 0.0 4.0 0.00 0.42 0.00 67 1021.5
20201024163222 44 17 1.0 4.0 0.00 0.42 0.00 66 1021.6
20201024163026 44 21 2.0 7.0 0.00 0.42 0.00 67 1021.6
20201024162819 44 6 2.0 7.0 0.00 0.42 0.00 67 1021.6
20201024162618 44 39 1.0 7.0 0.00 0.42 0.00 68 1021.7
20201024162418 43 29 2.0 7.0 0.00 0.42 0.00 67 1021.7
20201024162217 43 25 3.0 7.0 0.00 0.42 0.00 68 1021.7
20201024162032 43 51 3.0 7.0 0.00 0.42 0.00 67 1021.7
20201024161816 43 60 4.0 7.0 0.00 0.42 0.00 68 1021.7
20201024161616 43 32 4.0 7.0 0.00 0.42 0.00 68 1021.7
20201024161416 43 23 2.0 6.0 0.00 0.42 0.00 68 1021.6
20201024161215 43 34 2.0 8.0 0.00 0.42 0.00 68 1021.6
20201024161020 43 19 1.0 8.0 0.00 0.42 0.00 69 1021.6
20201024160816 43 35 2.0 8.0 0.00 0.42 0.00 68 1021.5
20201024160415 43 27 2.0 8.0 0.00 0.42 0.00 68 1021.5
20201024160220 43 21 1.0 7.0 0.00 0.42 0.00 69 1021.4
20201024160023 43 31 2.0 7.0 0.00 0.42 0.00 69 1021.4
20201024155815 43 24 1.0 9.0 0.00 0.42 0.00 69 1021.4
20201024155613 43 45 3.0 9.0 0.00 0.42 0.00 68 1021.5
20201024155412 43 53 3.0 9.0 0.00 0.42 0.00 69 1021.5
20201024155217 43 36 2.0 9.0 0.00 0.42 0.00 69 1021.5
20201024155019 43 42 4.0 9.0 0.00 0.42 0.00 69 1021.5
20201024154815 43 44 3.0 9.0 0.00 0.42 0.00 69 1021.5
20201024154610 43 31 3.0 9.0 0.00 0.42 0.00 69 1021.6
20201024154411 43 36 3.0 9.0 0.00 0.42 0.00 68 1021.6
20201024154212 43 52 4.0 9.0 0.00 0.42 0.00 69 1021.6
20201024154012 43 30 2.0 9.0 0.00 0.42 0.00 70 1021.6
20201024153809 43 29 3.0 8.0 0.00 0.42 0.00 70 1021.6
20201024153610 43 28 4.0 8.0 0.00 0.42 0.00 70 1021.6
20201024153408 43 27 4.0 8.0 0.00 0.42 0.00 69 1021.6
20201024153209 43 26 5.0 10.0 0.00 0.42 0.00 70 1021.6
20201024153019 43 44 4.0 10.0 0.00 0.42 0.00 70 1021.7
20201024152810 43 47 4.0 10.0 0.00 0.42 0.00 70 1021.6
20201024152607 43 45 4.0 10.0 0.00 0.42 0.00 70 1021.6
20201024152217 43 22 2.0 6.0 0.00 0.42 0.00 71 1021.5
20201024152009 43 28 2.0 6.0 0.00 0.42 0.00 71 1021.4
20201024151813 42 30 2.0 6.0 0.00 0.42 0.00 71 1021.4
20201024151615 42 23 4.0 6.0 0.00 0.42 0.00 71 1021.4
20201024151405 42 39 3.0 7.0 0.00 0.42 0.00 72 1021.4
20201024151320 42 55 3.0 7.0 0.00 0.42 0.00 71 1021.4
20201024151009 42 34 2.0 7.0 0.00 0.42 0.00 71 1021.4
20201024150804 42 38 3.0 7.0 0.00 0.42 0.00 72 1021.4
20201024150602 42 31 3.0 8.0 0.00 0.42 0.00 72 1021.4
20201024150402 42 29 4.0 11.0 0.00 0.42 0.00 73 1021.4
20201024150204 42 38 3.0 11.0 0.00 0.42 0.00 71 1021.4
20201024150018 42 27 2.0 11.0 0.00 0.42 0.00 72 1021.5
20201024145802 42 23 4.0 11.0 0.00 0.42 0.00 72 1021.5
20201024145603 42 38 4.0 11.0 0.00 0.42 0.00 72 1021.4
20201024145401 42 66 3.0 7.0 0.00 0.42 0.00 72 1021.4
20201024145200 42 36 2.0 6.0 0.00 0.42 0.00 73 1021.4
20201024145019 42 349 2.0 6.0 0.00 0.42 0.00 73 1021.4
20201024144801 41 46 2.0 7.0 0.00 0.42 0.00 74 1021.5
20201024144619 41 69 2.0 9.0 0.00 0.42 0.00 74 1021.4
20201024144400 41 61 2.0 9.0 0.00 0.42 0.00 74 1021.4
20201024144206 41 52 2.0 9.0 0.00 0.42 0.00 74 1021.3
20201024143958 41 45 4.0 9.0 0.00 0.42 0.00 74 1021.3
20201024143557 40 85 2.0 6.0 0.00 0.42 0.00 74 1021.4
20201024143359 40 54 2.0 7.0 0.00 0.42 0.00 74 1021.4
20201024143157 40 14 2.0 7.0 0.00 0.42 0.00 74 1021.4
20201024142957 40 26 2.0 11.0 0.00 0.42 0.00 74 1021.3
20201024142757 40 18 3.0 11.0 0.00 0.42 0.00 75 1021.3
20201024142559 40 15 4.0 11.0 0.00 0.42 0.00 74 1021.3
20201024142355 40 23 4.0 11.0 0.00 0.42 0.00 75 1021.3
20201024141953 40 34 5.0 10.0 0.00 0.42 0.00 74 1021.4
20201024141753 40 39 3.0 10.0 0.00 0.42 0.00 75 1021.3
20201024141554 40 31 2.0 7.0 0.00 0.42 0.00 76 1021.4
20201024141354 40 13 2.0 7.0 0.00 0.42 0.00 76 1021.4
20201024141155 40 43 3.0 7.0 0.00 0.42 0.00 75 1021.4
20201024140956 40 33 3.0 7.0 0.00 0.42 0.00 76 1021.3
20201024140752 40 30 2.0 7.0 0.00 0.42 0.00 76 1021.4
20201024140551 40 43 2.0 6.0 0.00 0.42 0.00 76 1021.3
20201024140351 40 27 2.0 6.0 0.00 0.42 0.00 76 1021.3
20201024140201 40 61 2.0 6.0 0.00 0.42 0.00 76 1021.4
20201024135951 40 101 1.0 4.0 0.00 0.43 0.00 77 1021.4
20201024135750 40 15 1.0 4.0 0.00 0.43 0.00 76 1021.4
20201024135550 40 36 1.0 4.0 0.00 0.43 0.00 76 1021.3
20201024135353 41 25 1.0 6.0 0.00 0.43 0.00 76 1021.3
20201024135148 41 57 0.0 6.0 0.00 0.43 0.00 76 1021.3
20201024134950 40 44 1.0 6.0 0.00 0.43 0.00 76 1021.2
20201024134748 40 19 2.0 8.0 0.00 0.43 0.00 76 1021.2
20201024134548 40 66 2.0 8.0 0.00 0.43 0.00 76 1021.3
20201024134347 40 74 2.0 9.0 0.00 0.43 0.00 76 1021.3
20201024134146 40 54 2.0 9.0 0.00 0.43 0.00 76 1021.2
20201024133947 40 94 2.0 9.0 0.00 0.43 0.00 75 1021.3
20201024133748 40 76 2.0 9.0 0.00 0.43 0.00 76 1021.1
20201024133549 40 43 2.0 9.0 0.00 0.43 0.00 75 1021.1
20201024133345 40 53 1.0 6.0 0.00 0.43 0.00 76 1021.1
20201024133144 40 76 1.0 6.0 0.00 0.43 0.00 76 1021.1
20201024132946 40 83 1.0 6.0 0.00 0.43 0.00 76 1021.1
20201024132744 40 52 2.0 7.0 0.00 0.43 0.00 76 1021.0
20201024132545 40 65 2.0 7.0 0.00 0.43 0.00 76 1020.9
20201024132342 40 87 2.0 7.0 0.00 0.43 0.00 76 1020.9
20201024132143 40 127 2.0 7.0 0.00 0.43 0.00 76 1020.9
20201024131944 40 106 2.0 7.0 0.00 0.43 0.00 76 1020.8
20201024131742 40 91 1.0 5.0 0.00 0.43 0.00 77 1020.8
20201024131542 40 87 2.0 6.0 0.00 0.43 0.00 77 1020.7
20201024131341 40 83 2.0 6.0 0.00 0.43 0.00 78 1020.6